Flag for Canada Weather past 2 weeks in Thunder Bay, Ontario, Canada

Now
41 °F

Partly sunny.


Feels Like: 41 °F
Forecast: 35 / 43 °F
Wind: 2 mph from North

Location: Thunder Bay

Current Time: Oct 21, 2014 at 1:52:39 PM

Latest Report: Oct 21, 2014 at 1:00 PM


Visibility: 20 mi

Pressure: 30.34 "Hg

Humidity: 70%

Dew point: 32 °F

Location of Thunder BayLocation

Historic Weather in Thunder Bay — Graph

°F

Thunder Bay temperature yesterday

Maximum temperature yesterday: 48 °F (at 11:00 AM)
Minimum temperature yesterday: 36 °F (at 10:00 PM)
Average temperature yesterday: 45 °F

Past Weeks' High & Low Weather Summary

 TemperatureHumidityPressure
High64 °F (Oct 14, 3:00 PM)100% (Oct 8, 2:00 AM)30.35 "Hg (Oct 8, 2:00 AM)
Low27 °F (Oct 12, 6:00 AM)37% (Oct 14, 5:00 PM)29.26 "Hg (Oct 6, 3:00 PM)
Average42 °F80%29.91 "Hg
* Reported Oct 6 12:00 Noon — Oct 21 12:00 Noon, Thunder Bay, Weather by CustomWeather, © 2014

Note: Actual official high and low records may vary slightly from our data, if they occured in-between our weather recording intervals... More about our weather records

Advertising

Thunder Bay weather history for previous 24 hours

 ConditionsComfort  
Time TempWeatherWind HumidityBarometerVisibility
12:00 PM
Oct 21
39 °FOvercast.No wind75%30.35 "Hg20 mi
11:45 AM39 °FOvercast.3 mph75%30.35 "Hg15 mi
11:00 AM36 °FPartly sunny.2 mph87%30.34 "Hg20 mi
10:00 AM34 °FPartly sunny.2 mph93%30.33 "Hg20 mi
9:00 AM32 °FPassing clouds.2 mph93%30.32 "Hg20 mi
8:00 AM28 °FPassing clouds.6 mph100%30.30 "Hg15 mi
7:00 AM27 °FPassing clouds.3 mph100%30.29 "Hg15 mi
6:00 AM27 °FPassing clouds.2 mph100%30.27 "Hg15 mi
5:00 AM30 °FPassing clouds.3 mph93%30.26 "Hg15 mi
4:00 AM32 °FPassing clouds.5 mph93%30.24 "Hg15 mi
3:00 AM36 °FPassing clouds.5 mph87%30.23 "Hg15 mi
2:00 AM36 °FPassing clouds.5 mph87%30.22 "Hg15 mi
1:00 AM37 °FPassing clouds.5 mph81%30.21 "Hg15 mi
12:00 AM37 °FPassing clouds.7 mph81%30.19 "Hg15 mi
11:00 PM
Oct 20
39 °FPassing clouds.3 mph87%30.17 "Hg15 mi
10:00 PM36 °FPassing clouds.2 mph93%30.16 "Hg15 mi
9:00 PM37 °FPassing clouds.2 mph87%30.13 "Hg15 mi
8:00 PM41 °FPassing clouds.2 mph81%30.11 "Hg15 mi
7:00 PM43 °FScattered clouds.7 mph76%30.08 "Hg20 mi
6:00 PM45 °FPartly sunny.8 mph71%30.05 "Hg20 mi
5:00 PM46 °FMostly cloudy.8 mph71%30.02 "Hg20 mi
4:00 PM46 °FMostly cloudy.15 mph76%30.01 "Hg20 mi
3:00 PM48 °FOvercast.14 mph71%29.98 "Hg20 mi
2:00 PM48 °FMostly cloudy.12 mph71%29.96 "Hg20 mi
1:00 PM48 °FMostly cloudy.8 mph71%29.95 "Hg20 mi
Weather by CustomWeather, © 2014

See weather overviewHow to use our weather pages